Weather History for Lawrence, MA

Change the Weather History Date:

Saturday, March 9, 2013

  Actual Average Record
Temperature  
Mean Temperature 36 °F -  
Max Temperature 45 °F 41 °F 66 °F (1987)
Min Temperature 28 °F 22 °F 2 °F (1943)
Degree Days  
Heating Degree Days 28    
Moisture  
Dew Point 22 °F    
Average Humidity 57    
Maximum Humidity 85    
Minimum Humidity 41    
Precipitation  
Precipitation 0.00 in - - ()
Sea Level Pressure  
Sea Level Pressure 30.28 in    
Wind  
Wind Speed 8 mph (NE)    
Max Wind Speed 14 mph    
Max Gust Speed -    
Visibility 10 miles    
Events      
Averages and records for this station are not official NWS values.
T = Trace of Precipitation, MM = Missing Value Source: NWS Daily Summary

Daily Weather History Graph

Daily Weather History Graph

Search for Another Location

Airport:

Trip Planner

Search our weather history database for the weather conditions in past years. The results will help you decide how hot, cold, wet, or windy it might be!

Date:

Astronomy

Mar. 09, 2013 Rise Set
Actual Time 6:06 AM EST 5:44 PM EST
Civil Twilight 5:38 AM EST 6:12 PM EST
Nautical Twilight 5:05 AM EST 6:44 PM EST
Astronomical Twilight 4:32 AM EST 7:18 PM EST
Moon 4:31 AM EST (3/9) 3:40 PM EST (3/9)
Length of Visible Light 12h 33m
Length of Day
11h 37m
Waning Crescent, 5% of the Moon is Illuminated
Mar 9
Waning Crescent
Mar 11
New
Mar 19
First Quarter
Mar 27
Full
Apr 3
Last Quarter

Hourly Weather History & Observations

Time (EST) Temp. Windchill Dew Point Humidity Pressure Visibility Wind Dir Wind Speed Gust Speed Precip Events Conditions
12:54 AM 37.9 °F 30.9 °F 19.0 °F 47% 30.18 in 10.0 mi NNE 10.4 mph - N/A   Clear
1:54 AM 37.0 °F 31.0 °F 18.0 °F 46% 30.19 in 10.0 mi North 8.1 mph - N/A   Clear
2:54 AM 34.0 °F 26.0 °F 17.1 °F 50% 30.18 in 10.0 mi NNE 10.4 mph - N/A   Clear
3:54 AM 35.1 °F 26.9 °F 17.1 °F 48% 30.18 in 10.0 mi NNE 11.5 mph - N/A   Clear
4:54 AM 33.1 °F 25.5 °F 17.1 °F 52% 30.21 in 10.0 mi NNE 9.2 mph - N/A   Clear
5:54 AM 32.0 °F 24.8 °F 17.1 °F 54% 30.23 in 10.0 mi NNE 8.1 mph - N/A   Clear
6:54 AM 32.0 °F 23.6 °F 17.1 °F 54% 30.25 in 10.0 mi NNE 10.4 mph - N/A   Clear
7:54 AM 35.1 °F 27.9 °F 18.0 °F 50% 30.26 in 10.0 mi North 9.2 mph - N/A   Clear
8:54 AM 37.9 °F 29.6 °F 19.0 °F 47% 30.26 in 10.0 mi NE 13.8 mph - N/A   Clear
9:54 AM 41.0 °F 35.2 °F 19.0 °F 41% 30.27 in 10.0 mi NNE 9.2 mph - N/A   Clear
10:54 AM 42.1 °F 37.7 °F 23.0 °F 47% 30.27 in 10.0 mi East 6.9 mph - N/A   Clear
11:54 AM 43.0 °F 39.5 °F 24.1 °F 47% 30.28 in 10.0 mi East 5.8 mph - N/A   Clear
12:54 PM 45.0 °F 41.8 °F 24.1 °F 44% 30.27 in 10.0 mi East 5.8 mph - N/A   Clear
1:54 PM 45.0 °F 41.2 °F 25.0 °F 46% 30.26 in 10.0 mi ENE 6.9 mph - N/A   Clear
2:54 PM 45.0 °F 41.2 °F 26.1 °F 48% 30.26 in 10.0 mi East 6.9 mph - N/A   Clear
3:54 PM 43.0 °F 38.8 °F 27.0 °F 53% 30.27 in 10.0 mi East 6.9 mph - N/A   Clear
4:54 PM 42.1 °F 38.4 °F 26.1 °F 53% 30.30 in 10.0 mi East 5.8 mph - N/A   Clear
5:54 PM 39.0 °F 36.8 °F 27.0 °F 62% 30.32 in 10.0 mi East 3.5 mph - N/A   Clear
6:54 PM 36.0 °F - 27.0 °F 70% 30.34 in 10.0 mi Calm Calm - N/A   Clear
7:54 PM 33.1 °F - 26.1 °F 75% 30.35 in 10.0 mi Calm Calm - N/A   Clear
8:54 PM 32.0 °F - 27.0 °F 82% 30.36 in 10.0 mi Calm Calm - N/A   Clear
9:54 PM 32.0 °F - 27.0 °F 82% 30.37 in 10.0 mi Calm Calm - N/A   Clear
10:54 PM 28.9 °F - 25.0 °F 85% 30.37 in 8.0 mi Calm Calm - N/A   Clear
11:54 PM 28.9 °F - 25.0 °F 85% 30.38 in 9.0 mi Calm Calm - N/A   Clear